Location: *
(60.1759°S, 155.0663°W)
Time: 12:06:53
(UTC+00:00)

Cosmos 1703 Rocket - Pass Details

Date: 17 September 2019
Orbit: 604 x 634 km, 82.5° (Epoch: 17 October)

Event Time Altitude Azimuth Distance (km) Brightness Sun altitude
Rises 14:45:47 0° 198° (SSW) 2,964 7.1 -12.8°
Reaches altitude 10° 14:48:11 10° 206° (SSW) 2,054 6.1 -12.5°
Maximum altitude 14:52:17 34° 270° (W) 1,070 4.3 -12.0°
Drops below altitude 10° 14:56:23 10° 334° (NNW) 2,043 5.8 -11.6°
Sets 14:58:46 0° 343° (NNW) 2,946 6.7 -11.3°
